Weather in Lepsha

Russia / Arkhangel'skaya Oblast'     62°19′36″N   40°19′54″E
temp.,
°C
wind,
m/s
gust,
m/s
humid.,
%
clouds,
%
prec.,
mm/h
press.,
hPa
HPBL,
m
28 november, sun
sun2800:00−8ne3993100 0.0 1009299
03:00−8ne41190100 0.1 1007443
06:00−9ne41293100 0.5 1005495
09:00−9nne41292100 1.1 1005471
12:00−9nne41091100 0.4 1004406
15:00−10nne31094100 0.9 1004385
18:00−10n3894100 0.9 1004390
21:00−10n3895100 2.1 1004378
29 november, mon
mon2900:00−11n3894100 0.9 1005376
03:00−11nnw369392 1.1 1008340
06:00−14nnw259795 0.0 1010114
09:00−16nw119862 0.0 101218
12:00−15nne129715 0.0 101458
15:00−18ne119955 0.0 10149
18:00−19ene11100100 0.0 101423
21:00−16ene2995100 0.0 1012248
30 november, tue
tue3000:00−14ene31292100 0.0 1009375
03:00−14ene41491100 0.0 1005439
06:00−13ene41589100 0.0 1001484
09:00−12ene51588100 0.0 996524
12:00−10ene51588100 0.1 992549
15:00−10ne51489100 0.4 987636
18:00−9ne51389100 0.4 984651
21:00−9ne41193100 0.9 981621
1 december, wed
wed100:00−9nne31093100 0.5 980555
03:00−9nne379281 0.6 980397
06:00−9n259496 0.1 981278
09:00−11nnw129888 0.1 98247
12:00−9nw129482 0.1 983163
15:00−9w139789 0.2 984122
18:00−10wsw149883 0.3 98590
21:00−10sw249698 0.4 985166
2 december, thu
thu200:00−10sw2496100 0.4 986208
03:00−10wsw2596100 0.9 986267
06:00−9sw2696100 0.5 986317
09:00−9sw389599 1.0 987334
12:00−8wsw499299 0.3 988513
15:00−9wsw4109299 0.3 990462
18:00−10wsw3109494 0.1 991376
21:00−12wsw399579 0.1 993269